Regen radar Meer informatie rain snow radar


Bezoek onze andere website:

Template documentation
and downloads

And another site



Weather Underground Historische gegevens

Dagelijkse Samenvatting augustus 18, 2018 Eenheden:  Metrisch    Engels   Beide
« Vorige Dag
Volgende Dag »
Dagelijkse Wekelijkse Maandelijkse Jaarlijkse Aangepaste
  Huidig: Hoog: Laag: Gemiddeld:
Temperatuur: -6.1 °C -17.8 °C -9.6 °C -7.8 °C
Dauwpunt: -12.8 °C -17.8 °C -13.2 °C -12.2 °C
Vochtigheid: 46 % Humidity % 46 % 60 %
Wind snelheid: 0 km/h 0 km/h 0 km/h 10.6 km/h
Windvlaag: 25.9 km/h 0 km/h - -
Wind:Calm - - SSW
Luchtdruk: 34544 hPa 0 hPa 34520.3 hPa -
Neerslag: 0 mm      
Historical Graphs
 
 
Tabel voor augustus 18, 2018
Tijd Temperatuur Dauwpunt Luchtdruk Wind Wind snelheid Windvlaag Vochtigheid Regenval per uur
-17.8 °C -17.8 °C 0 hPa Calm     Humidity % 0 mm
00:04 -8.7 °C -13.2 °C 34533.8 hPa SW 2.3 km/h 5.1 km/h 59 % 0 mm
00:09 -8.7 °C -13.1 °C 34533.8 hPa SW 5.1 km/h 7.7 km/h 60 % 0 mm
00:14 -8.7 °C -13.1 °C 34533.8 hPa Calm   2.6 km/h 60 % 0 mm
00:18 -8.8 °C -12.9 °C 34533.8 hPa Calm   5.1 km/h 61 % 0 mm
00:24 -8.8 °C -12.9 °C 34533.8 hPa Calm   2.6 km/h 61 % 0 mm
00:29 -8.8 °C -12.9 °C 34533.8 hPa Calm   2.6 km/h 61 % 0 mm
00:34 -8.8 °C -12.9 °C 34533.8 hPa Calm   2.6 km/h 62 % 0 mm
00:38 -8.9 °C -12.9 °C 34533.8 hPa SW 2.3 km/h 2.6 km/h 62 % 0 mm
00:44 -8.9 °C -12.8 °C 34533.8 hPa Calm   5.1 km/h 63 % 0 mm
00:49 -8.9 °C -12.8 °C 34533.8 hPa SSW 5.1 km/h 5.1 km/h 63 % 0 mm
00:54 -8.9 °C -12.8 °C 34533.8 hPa Calm   5.1 km/h 63 % 0 mm
00:59 -8.9 °C -12.8 °C 34533.8 hPa Calm   5.1 km/h 63 % 0 mm
01:04 -8.9 °C -12.8 °C 34533.8 hPa Calm   5.1 km/h 63 % 0 mm
01:09 -8.9 °C -12.7 °C 34533.8 hPa SSW 2.3 km/h 2.6 km/h 64 % 0 mm
01:14 -8.9 °C -12.7 °C 34533.8 hPa SSW 2.3 km/h 5.1 km/h 64 % 0 mm
01:19 -9 °C -12.8 °C 34533.8 hPa Calm   5.1 km/h 64 % 0 mm
01:24 -9 °C -12.7 °C 34533.8 hPa SSW 5.1 km/h 5.1 km/h 65 % 0 mm
01:29 -9.1 °C -12.7 °C 34533.8 hPa SSW 2.3 km/h 2.6 km/h 65 % 0 mm
01:34 -9.1 °C -12.7 °C 34533.8 hPa Calm   5.1 km/h 65 % 0 mm
01:39 -9.1 °C -12.8 °C 34533.8 hPa SSW 2.3 km/h 5.1 km/h 65 % 0 mm
01:44 -9.1 °C -12.6 °C 34533.8 hPa SSW 2.3 km/h 7.7 km/h 66 % 0 mm
01:48 -9.1 °C -12.6 °C 34533.8 hPa Calm   5.1 km/h 66 % 0 mm
01:54 -9.2 °C -12.7 °C 34533.8 hPa SSW 2.3 km/h 5.1 km/h 66 % 0 mm
01:59 -9.1 °C -12.6 °C 34533.8 hPa Calm   5.1 km/h 66 % 0 mm
02:03 -9.1 °C -12.5 °C 34533.8 hPa SSW 2.3 km/h 5.1 km/h 67 % 0 mm
02:08 -9.1 °C -12.5 °C 34533.8 hPa SSW 2.3 km/h 2.6 km/h 67 % 0 mm
02:14 -9.1 °C -12.5 °C 34533.8 hPa SSW 2.3 km/h 5.1 km/h 67 % 0 mm
02:19 -9.1 °C -12.5 °C 34533.8 hPa SSW 5.1 km/h 5.1 km/h 67 % 0 mm
02:24 -9.1 °C -12.5 °C 34533.8 hPa SSW 5.1 km/h 5.1 km/h 67 % 0 mm
02:29 -9.1 °C -12.5 °C 34533.8 hPa Calm   5.1 km/h 67 % 0 mm
02:34 -9.1 °C -12.5 °C 34533.8 hPa Calm   7.7 km/h 67 % 0 mm
02:39 -9.1 °C -12.4 °C 34533.8 hPa SSW 5.1 km/h 10.3 km/h 68 % 0 mm
02:44 -9.1 °C -12.3 °C 34533.8 hPa SSW 10.3 km/h 12.9 km/h 68 % 0 mm
02:49 -9 °C -12.4 °C 34533.8 hPa South 5.1 km/h 12.9 km/h 67 % 0 mm
02:53 -8.9 °C -12.3 °C 34533.8 hPa South 10.3 km/h 12.9 km/h 67 % 0 mm
02:59 -8.8 °C -12.4 °C 34533.8 hPa South 15.6 km/h 18.2 km/h 66 % 0 mm
03:04 -8.8 °C -12.4 °C 34533.8 hPa South 5.1 km/h 12.9 km/h 66 % 0 mm
03:09 -8.8 °C -12.4 °C 34533.8 hPa South 5.1 km/h 7.7 km/h 66 % 0 mm
03:14 -8.8 °C -12.4 °C 34533.8 hPa South 7.6 km/h 12.9 km/h 66 % 0 mm
03:19 -8.9 °C -12.4 °C 34533.8 hPa South 5.1 km/h 12.9 km/h 66 % 0 mm
03:24 -8.9 °C -12.4 °C 34533.8 hPa SSW 2.3 km/h 12.9 km/h 66 % 0 mm
03:29 -8.9 °C -12.4 °C 34533.8 hPa SSW 7.6 km/h 20.8 km/h 66 % 0 mm
03:34 -8.8 °C -12.4 °C 34533.8 hPa South 10.3 km/h 23.3 km/h 66 % 0 mm
03:39 -8.8 °C -12.4 °C 34533.8 hPa SSE 12.7 km/h 18.2 km/h 66 % 0 mm
03:43 -8.8 °C -12.4 °C 34533.8 hPa SSW 10.3 km/h 20.8 km/h 66 % 0 mm
03:49 -8.8 °C -12.4 °C 34533.8 hPa SSW 7.6 km/h 15.6 km/h 66 % 0 mm
03:54 -8.8 °C -12.4 °C 34533.8 hPa SW 5.1 km/h 12.9 km/h 66 % 0 mm
03:59 -8.8 °C -12.4 °C 34533.8 hPa South 5.1 km/h 12.9 km/h 66 % 0 mm
04:04 -8.8 °C -12.4 °C 34533.8 hPa SSW 10.3 km/h 12.9 km/h 66 % 0 mm
04:08 -8.9 °C -12.4 °C 34533.8 hPa South 7.6 km/h 12.9 km/h 66 % 0 mm
04:14 -8.9 °C -12.4 °C 34533.8 hPa SSW 12.7 km/h 12.9 km/h 66 % 0 mm
04:19 -8.9 °C -12.4 °C 34520.3 hPa South 2.3 km/h 15.6 km/h 66 % 0 mm
04:24 -8.9 °C -12.4 °C 34520.3 hPa SSE 12.7 km/h 15.6 km/h 66 % 0 mm
04:29 -9 °C -12.5 °C 34520.3 hPa South 5.1 km/h 15.6 km/h 66 % 0 mm
04:34 -9 °C -12.4 °C 34520.3 hPa SSE 5.1 km/h 12.9 km/h 67 % 0 mm
04:39 -9 °C -12.4 °C 34520.3 hPa South 10.3 km/h 12.9 km/h 67 % 0 mm
04:44 -9.1 °C -12.4 °C 34520.3 hPa South 10.3 km/h 12.9 km/h 67 % 0 mm
04:49 -9.1 °C -12.4 °C 34520.3 hPa SSW 7.6 km/h 10.3 km/h 67 % 0 mm
04:54 -9.1 °C -12.3 °C 34520.3 hPa SSW 7.6 km/h 18.2 km/h 68 % 0 mm
04:59 -9.1 °C -12.3 °C 34520.3 hPa SSW 5.1 km/h 7.7 km/h 68 % 0 mm
05:04 -9.1 °C -12.4 °C 34520.3 hPa South 2.3 km/h 10.3 km/h 68 % 0 mm
05:09 -9.1 °C -12.4 °C 34520.3 hPa South 7.6 km/h 15.6 km/h 68 % 0 mm
05:14 -9.1 °C -12.4 °C 34520.3 hPa SSW 10.3 km/h 20.8 km/h 68 % 0 mm
05:19 -9.1 °C -12.4 °C 34520.3 hPa SW 10.3 km/h 25.9 km/h 68 % 0 mm
05:24 -9.2 °C -12.4 °C 34520.3 hPa SSW 12.7 km/h 15.6 km/h 68 % 0 mm
05:28 -9.2 °C -12.3 °C 34520.3 hPa South 7.6 km/h 15.6 km/h 69 % 0 mm
05:34 -9.2 °C -12.4 °C 34520.3 hPa SSW 7.6 km/h 15.6 km/h 69 % 0 mm
05:39 -9.2 °C -12.4 °C 34520.3 hPa South 7.6 km/h 15.6 km/h 69 % 0 mm
05:44 -9.2 °C -12.4 °C 34520.3 hPa SE 5.1 km/h 10.3 km/h 69 % 0 mm
05:49 -9.3 °C -12.3 °C 34520.3 hPa SE 10.3 km/h 12.9 km/h 70 % 0 mm
05:54 -9.3 °C -12.3 °C 34520.3 hPa SE 5.1 km/h 10.3 km/h 70 % 0 mm
05:59 -9.3 °C -12.3 °C 34520.3 hPa South 7.6 km/h 12.9 km/h 70 % 0 mm
06:04 -9.4 °C -12.4 °C 34520.3 hPa SSE 5.1 km/h 7.7 km/h 70 % 0 mm
06:09 -9.4 °C -12.3 °C 34520.3 hPa Calm   10.3 km/h 71 % 0 mm
06:14 -9.4 °C -12.3 °C 34520.3 hPa South 2.3 km/h 10.3 km/h 71 % 0 mm
06:19 -9.5 °C -12.4 °C 34520.3 hPa SSE 2.3 km/h 10.3 km/h 71 % 0 mm
06:24 -9.5 °C -12.4 °C 34520.3 hPa SSE 5.1 km/h 7.7 km/h 71 % 0 mm
06:29 -9.5 °C -12.4 °C 34520.3 hPa SE 2.3 km/h 10.3 km/h 71 % 0 mm
06:34 -9.6 °C -12.4 °C 34520.3 hPa SSE 7.6 km/h 12.9 km/h 71 % 0 mm
06:39 -9.6 °C -12.3 °C 34520.3 hPa SE 10.3 km/h 10.3 km/h 72 % 0 mm
06:44 -9.6 °C -12.4 °C 34520.3 hPa SSE 5.1 km/h 7.7 km/h 72 % 0 mm
06:49 -9.6 °C -12.4 °C 34533.8 hPa SSE 5.1 km/h 10.3 km/h 72 % 0 mm
06:54 -9.6 °C -12.4 °C 34533.8 hPa South 5.1 km/h 7.7 km/h 72 % 0 mm
06:59 -9.6 °C -12.4 °C 34533.8 hPa South 10.3 km/h 10.3 km/h 72 % 0 mm
07:04 -9.6 °C -12.3 °C 34533.8 hPa South 2.3 km/h 15.6 km/h 72 % 0 mm
07:09 -9.6 °C -12.3 °C 34533.8 hPa South 7.6 km/h 15.6 km/h 72 % 0 mm
07:14 -9.6 °C -12.3 °C 34533.8 hPa SW 12.7 km/h 18.2 km/h 72 % 0 mm
07:19 -9.6 °C -12.3 °C 34533.8 hPa South 10.3 km/h 12.9 km/h 72 % 0 mm
07:24 -9.5 °C -12.3 °C 34533.8 hPa South 5.1 km/h 12.9 km/h 72 % 0 mm
07:29 -9.5 °C -12.4 °C 34533.8 hPa SW 12.7 km/h 15.6 km/h 71 % 0 mm
07:34 -9.4 °C -12.3 °C 34533.8 hPa SSW 5.1 km/h 18.2 km/h 71 % 0 mm
07:39 -9.4 °C -12.3 °C 34533.8 hPa SSE 10.3 km/h 15.6 km/h 71 % 0 mm
07:44 -9.4 °C -12.3 °C 34533.8 hPa South 15.6 km/h 28.5 km/h 71 % 0 mm
07:49 -9.3 °C -12.2 °C 34533.8 hPa South 7.6 km/h 20.8 km/h 71 % 0 mm
07:54 -9.3 °C -12.2 °C 34533.8 hPa SSE 7.6 km/h 33.6 km/h 71 % 0 mm
07:59 -9.2 °C -12.1 °C 34533.8 hPa ESE 5.1 km/h 12.9 km/h 71 % 0 mm
08:04 -9.1 °C -12 °C 34533.8 hPa SSW 12.7 km/h 25.9 km/h 71 % 0 mm
08:09 -9.1 °C -12 °C 34544 hPa SSW 5.1 km/h 18.2 km/h 71 % 0 mm
08:14 -9.1 °C -12.1 °C 34544 hPa South 7.6 km/h 25.9 km/h 70 % 0 mm
08:19 -8.9 °C -12 °C 34544 hPa SSW 10.3 km/h 18.2 km/h 70 % 0 mm
08:23 -8.9 °C -12 °C 34544 hPa SSW 23 km/h 23.3 km/h 70 % 0 mm
08:29 -8.8 °C -11.9 °C 34544 hPa SSW 7.6 km/h 15.6 km/h 70 % 0 mm
08:34 -8.8 °C -11.9 °C 34544 hPa SW 15.6 km/h 15.6 km/h 69 % 0 mm
08:39 -8.7 °C -11.9 °C 34544 hPa SSW 10.3 km/h 25.9 km/h 69 % 0 mm
08:44 -8.6 °C -11.8 °C 34544 hPa SSW 15.6 km/h 23.3 km/h 69 % 0 mm
08:49 -8.5 °C -11.7 °C 34544 hPa South 2.3 km/h 7.7 km/h 69 % 0 mm
08:54 -8.4 °C -11.7 °C 34544 hPa SSW 17.9 km/h 18.2 km/h 68 % 0 mm
08:59 -8.3 °C -11.6 °C 34544 hPa SSW 7.6 km/h 28.5 km/h 68 % 0 mm
09:04 -8.2 °C -11.7 °C 34544 hPa SW 12.7 km/h 28.5 km/h 67 % 0 mm
09:09 -8.2 °C -11.6 °C 34544 hPa SW 10.3 km/h 12.9 km/h 67 % 0 mm
09:14 -8.1 °C -11.6 °C 34544 hPa SSW 20.9 km/h 31.1 km/h 67 % 0 mm
09:19 -8 °C -11.6 °C 34544 hPa SSW 5.1 km/h 23.3 km/h 66 % 0 mm
09:24 -7.9 °C -11.5 °C 34544 hPa SW 23 km/h 28.5 km/h 66 % 0 mm
09:29 -7.9 °C -11.6 °C 34544 hPa SSE 10.3 km/h 20.8 km/h 65 % 0 mm
09:34 -7.7 °C -11.4 °C 34544 hPa SSW 7.6 km/h 23.3 km/h 65 % 0 mm
09:39 -7.6 °C -11.4 °C 34544 hPa SSW 12.7 km/h 23.3 km/h 64 % 0 mm
09:44 -7.6 °C -11.4 °C 34544 hPa WSW 2.3 km/h 18.2 km/h 64 % 0 mm
09:49 -7.4 °C -11.4 °C 34554.1 hPa South 12.7 km/h 31.1 km/h 63 % 0 mm
09:54 -7.4 °C -11.4 °C 34544 hPa SW 7.6 km/h 18.2 km/h 63 % 0 mm
09:59 -7.3 °C -11.4 °C 34544 hPa South 7.6 km/h 20.8 km/h 62 % 0 mm
10:04 -7.2 °C -11.3 °C 34544 hPa SSW 17.9 km/h 23.3 km/h 62 % 0 mm
10:09 -7.1 °C -11.3 °C 34544 hPa ESE 7.6 km/h 28.5 km/h 61 % 0 mm
10:14 -6.9 °C -11.5 °C 34554.1 hPa SSW 10.3 km/h 28.5 km/h 59 % 0 mm
10:19 -6.9 °C -11.5 °C 34554.1 hPa SW 5.1 km/h 31.1 km/h 59 % 0 mm
10:24 -6.9 °C -11.4 °C 34554.1 hPa SW 10.3 km/h 23.3 km/h 59 % 0 mm
10:28 -6.8 °C -11.4 °C 34554.1 hPa SW 12.7 km/h 18.2 km/h 59 % 0 mm
10:34 -6.8 °C -11.6 °C 34554.1 hPa SSW 10.3 km/h 36.2 km/h 58 % 0 mm
10:39 -6.7 °C -11.4 °C 34554.1 hPa SSW 7.6 km/h 25.9 km/h 58 % 0 mm
10:44 -6.6 °C -11.4 °C 34554.1 hPa SSW 12.7 km/h 28.5 km/h 57 % 0 mm
10:49 -6.6 °C -11.6 °C 34554.1 hPa SW 7.6 km/h 31.1 km/h 56 % 0 mm
10:54 -6.7 °C -11.7 °C 34554.1 hPa South 17.9 km/h 25.9 km/h 56 % 0 mm
10:59 -6.8 °C -11.7 °C 34554.1 hPa South 7.6 km/h 28.5 km/h 57 % 0 mm
11:04 -6.8 °C -11.8 °C 34554.1 hPa SSW 23 km/h 33.6 km/h 56 % 0 mm
11:09 -6.8 °C -11.9 °C 34554.1 hPa SW 5.1 km/h 25.9 km/h 55 % 0 mm
11:14 -6.8 °C -11.8 °C 34554.1 hPa SW 15.6 km/h 18.2 km/h 56 % 0 mm
11:19 -6.8 °C -11.8 °C 34554.1 hPa SW 26.2 km/h 25.9 km/h 56 % 0 mm
11:24 -6.8 °C -11.9 °C 34554.1 hPa SSW 7.6 km/h 23.3 km/h 55 % 0 mm
11:29 -6.7 °C -11.9 °C 34554.1 hPa SSW 7.6 km/h 23.3 km/h 55 % 0 mm
11:34 -6.8 °C -11.8 °C 34554.1 hPa South 17.9 km/h 31.1 km/h 56 % 0 mm
11:38 -6.8 °C -11.7 °C 34554.1 hPa SSW 12.7 km/h 23.3 km/h 57 % 0 mm
11:44 -6.8 °C -11.7 °C 34554.1 hPa South 23 km/h 25.9 km/h 57 % 0 mm
11:49 -6.8 °C -11.7 °C 34554.1 hPa South 5.1 km/h 25.9 km/h 57 % 0 mm
11:54 -6.8 °C -11.7 °C 34554.1 hPa SSW 17.9 km/h 28.5 km/h 57 % 0 mm
11:59 -6.8 °C -11.7 °C 34554.1 hPa SSW 10.3 km/h 25.9 km/h 57 % 0 mm
12:04 -6.8 °C -11.7 °C 34554.1 hPa South 5.1 km/h 12.9 km/h 57 % 0 mm
12:09 -6.8 °C -11.7 °C 34567.7 hPa South 15.6 km/h 25.9 km/h 57 % 0 mm
12:14 -6.8 °C -11.7 °C 34567.7 hPa WSW 17.9 km/h 18.2 km/h 57 % 0 mm
12:19 -6.7 °C -11.7 °C 34554.1 hPa South 31.4 km/h 31.1 km/h 56 % 0 mm
12:24 -6.8 °C -11.8 °C 34567.7 hPa SSW 28.5 km/h 31.1 km/h 56 % 0 mm
12:29 -6.8 °C -11.8 °C 34567.7 hPa South 15.6 km/h 28.5 km/h 56 % 0 mm
12:34 -6.8 °C -11.9 °C 34567.7 hPa SSW 12.7 km/h 36.2 km/h 55 % 0 mm
12:39 -6.8 °C -11.8 °C 34567.7 hPa SW 15.6 km/h 23.3 km/h 56 % 0 mm
12:44 -6.8 °C -11.8 °C 34567.7 hPa SSW 15.6 km/h 33.6 km/h 56 % 0 mm
12:48 -6.8 °C -11.8 °C 34554.1 hPa SW 7.6 km/h 25.9 km/h 56 % 0 mm
12:54 -6.8 °C -11.8 °C 34567.7 hPa SW 12.7 km/h 33.6 km/h 56 % 0 mm
12:59 -6.7 °C -11.7 °C 34567.7 hPa South 7.6 km/h 12.9 km/h 56 % 0 mm
13:04 -6.7 °C -11.9 °C 34554.1 hPa SW 10.3 km/h 31.1 km/h 55 % 0 mm
13:09 -6.7 °C -11.8 °C 34567.7 hPa South 26.2 km/h 33.6 km/h 55 % 0 mm
13:14 -6.7 °C -12 °C 34567.7 hPa SSW 26.2 km/h 28.5 km/h 54 % 0 mm
13:19 -6.7 °C -11.8 °C 34567.7 hPa SSW 10.3 km/h 31.1 km/h 55 % 0 mm
13:24 -6.6 °C -11.7 °C 34554.1 hPa SSW 17.9 km/h 18.2 km/h 55 % 0 mm
13:29 -6.6 °C -11.7 °C 34554.1 hPa SSE 10.3 km/h 25.9 km/h 55 % 0 mm
13:34 -6.6 °C -11.7 °C 34567.7 hPa WSW 10.3 km/h 33.6 km/h 55 % 0 mm
13:39 -6.7 °C -11.8 °C 34567.7 hPa SW 7.6 km/h 18.2 km/h 55 % 0 mm
13:44 -6.6 °C -11.8 °C 34567.7 hPa WSW 20.9 km/h 28.5 km/h 55 % 0 mm
13:49 -6.6 °C -11.8 °C 34554.1 hPa SSW 23 km/h 28.5 km/h 55 % 0 mm
13:53 -6.6 °C -11.9 °C 34567.7 hPa WSW 10.3 km/h 36.2 km/h 54 % 0 mm
13:59 -6.6 °C -11.9 °C 34567.7 hPa SW 15.6 km/h 28.5 km/h 54 % 0 mm
14:04 -6.4 °C -11.8 °C 34554.1 hPa SW 10.3 km/h 18.2 km/h 54 % 0 mm
14:09 -6.3 °C -12.2 °C 34567.7 hPa SSW 28.5 km/h 44.1 km/h 51 % 0 mm
14:13 -6.3 °C -12.3 °C 34554.1 hPa SE 7.6 km/h 36.2 km/h 50 % 0 mm
14:19 -6.3 °C -12.3 °C 34554.1 hPa SSW 23 km/h 36.2 km/h 50 % 0 mm
14:24 -6.2 °C -12.1 °C 34554.1 hPa WSW 5.1 km/h 23.3 km/h 51 % 0 mm
14:29 -6.2 °C -12.2 °C 34554.1 hPa SSW 17.9 km/h 33.6 km/h 50 % 0 mm
14:33 -6.2 °C -12.4 °C 34567.7 hPa South 10.3 km/h 38.8 km/h 49 % 0 mm
14:39 -6.2 °C -12.2 °C 34554.1 hPa WSW 7.6 km/h 31.1 km/h 50 % 0 mm
14:44 -6.2 °C -12.2 °C 34554.1 hPa SSW 33.6 km/h 33.6 km/h 50 % 0 mm
14:49 -6.1 °C -12.3 °C 34554.1 hPa SSW 28.5 km/h 36.2 km/h 49 % 0 mm
14:54 -6.1 °C -12.2 °C 34554.1 hPa SSW 38.8 km/h 44.1 km/h 49 % 0 mm
14:59 -6 °C -12 °C 34554.1 hPa SW 10.3 km/h 25.9 km/h 50 % 0 mm
15:04 -5.9 °C -12.1 °C 34554.1 hPa WSW 12.7 km/h 31.1 km/h 49 % 0 mm
15:09 -5.9 °C -12.1 °C 34554.1 hPa SSW 15.6 km/h 38.8 km/h 49 % 0 mm
15:14 -5.9 °C -12.3 °C 34554.1 hPa SW 15.6 km/h 46.7 km/h 48 % 0 mm
15:19 -5.9 °C -12.1 °C 34554.1 hPa SSW 23 km/h 25.9 km/h 49 % 0 mm
15:24 -6.1 °C -12.1 °C 34554.1 hPa SW 26.2 km/h 36.2 km/h 50 % 0 mm
15:29 -6.1 °C -12.1 °C 34554.1 hPa SW 17.9 km/h 28.5 km/h 50 % 0 mm
15:34 -6.2 °C -12 °C 34554.1 hPa SW 23 km/h 36.2 km/h 51 % 0 mm
15:39 -6.2 °C -12.1 °C 34554.1 hPa SW 31.4 km/h 36.2 km/h 51 % 0 mm
15:44 -6.3 °C -12.1 °C 34554.1 hPa SW 17.9 km/h 31.1 km/h 51 % 0 mm
15:49 -6.3 °C -11.9 °C 34554.1 hPa SSW 26.2 km/h 31.1 km/h 52 % 0 mm
15:54 -6.3 °C -11.9 °C 34554.1 hPa South 10.3 km/h 31.1 km/h 52 % 0 mm
15:59 -6.3 °C -11.9 °C 34554.1 hPa SSW 10.3 km/h 31.1 km/h 52 % 0 mm
16:04 -6.2 °C -11.9 °C 34554.1 hPa SW 12.7 km/h 31.1 km/h 52 % 0 mm
16:09 -6.2 °C -11.9 °C 34554.1 hPa SSW 17.9 km/h 36.2 km/h 52 % 0 mm
16:14 -6.2 °C -12 °C 34554.1 hPa SW 23 km/h 31.1 km/h 51 % 0 mm
16:19 -6.1 °C -12.1 °C 34554.1 hPa SSW 28.5 km/h 36.2 km/h 50 % 0 mm
16:24 -6 °C -12 °C 34554.1 hPa SW 10.3 km/h 31.1 km/h 50 % 0 mm
16:29 -5.9 °C -12.1 °C 34554.1 hPa SSW 12.7 km/h 15.6 km/h 49 % 0 mm
16:34 -5.7 °C -12.1 °C 34554.1 hPa SSW 15.6 km/h 25.9 km/h 48 % 0 mm
16:39 -5.8 °C -12.2 °C 34554.1 hPa SW 31.4 km/h 36.2 km/h 48 % 0 mm
16:44 -5.9 °C -12.3 °C 34554.1 hPa WSW 10.3 km/h 36.2 km/h 48 % 0 mm
16:49 -5.8 °C -12.2 °C 34554.1 hPa West 12.7 km/h 28.5 km/h 48 % 0 mm
16:54 -5.9 °C -12.4 °C 34554.1 hPa SSW 12.7 km/h 44.1 km/h 47 % 0 mm
16:59 -6 °C -12.2 °C 34554.1 hPa SW 10.3 km/h 31.1 km/h 49 % 0 mm
17:04 -6.1 °C -12.1 °C 34554.1 hPa WSW 12.7 km/h 23.3 km/h 50 % 0 mm
17:09 -6.2 °C -12 °C 34554.1 hPa SW 10.3 km/h 31.1 km/h 51 % 0 mm
17:14 -6.2 °C -12 °C 34554.1 hPa SW 7.6 km/h 31.1 km/h 51 % 0 mm
17:19 -6.2 °C -12.1 °C 34554.1 hPa SW 12.7 km/h 25.9 km/h 51 % 0 mm
17:24 -6.2 °C -12.1 °C 34544 hPa WNW 7.6 km/h 18.2 km/h 51 % 0 mm
17:29 -6.2 °C -12.2 °C 34554.1 hPa SSW 20.9 km/h 20.8 km/h 50 % 0 mm
17:34 -6.1 °C -12.2 °C 34554.1 hPa SSW 10.3 km/h 18.2 km/h 49 % 0 mm
17:39 -6.1 °C -12.4 °C 34554.1 hPa South 5.1 km/h 31.1 km/h 48 % 0 mm
17:44 -6 °C -12.3 °C 34554.1 hPa SW 17.9 km/h 23.3 km/h 48 % 0 mm
17:49 -5.9 °C -12.3 °C 34544 hPa SW 15.6 km/h 28.5 km/h 48 % 0 mm
17:54 -6 °C -12.3 °C 34544 hPa SSE 10.3 km/h 31.1 km/h 48 % 0 mm
17:59 -6 °C -12.3 °C 34544 hPa South 23 km/h 28.5 km/h 48 % 0 mm
18:04 -5.9 °C -12.1 °C 34544 hPa SSW 7.6 km/h 12.9 km/h 49 % 0 mm
18:09 -5.9 °C -12.5 °C 34544 hPa SSW 31.4 km/h 33.6 km/h 47 % 0 mm
18:14 -6 °C -12.6 °C 34544 hPa SW 12.7 km/h 31.1 km/h 47 % 0 mm
18:19 -6 °C -12.6 °C 34544 hPa SSW 12.7 km/h 36.2 km/h 47 % 0 mm
18:24 -6.1 °C -12.6 °C 34544 hPa WNW 7.6 km/h 33.6 km/h 47 % 0 mm
18:29 -6.1 °C -12.6 °C 34544 hPa SW 12.7 km/h 36.2 km/h 47 % 0 mm
18:34 -6.1 °C -12.6 °C 34544 hPa SSW 17.9 km/h 31.1 km/h 47 % 0 mm
18:38 -6.1 °C -12.8 °C 34544 hPa Calm   25.9 km/h 46 % 0 mm
Nieuwerkerk ad IJssel Veldenbuurt
Gegevens verzameld door Weather Underground - 2.5 mb

Script ontwikkeld door  Jim McMurry - jmcmurry@mwt.net Aangepast voor de template door  Wim van der Kuil - Leuven-Template.eu

U vindt ons ook hier:

Het Weer Aktueel

Weather Underground

Apparatuur in gebruik:

Weercomputer
apple

Webleverancier
weservit

apple

weservit